Regional Weather Roundup
Issued by NWS

Home | Current Version | Previous Version | Graphics & Text | Print | Product List | Glossary Off
Versions: 1 2 3 4 5 6 7 8 9 10 11 12 13 14 15 16 17 18 19 20 21 22 23 24 25 26 27 28 29 30 31 32 33 34 35 36 37 38 39 40 41 42 43 44 45 46 47 48 49 50

000
ASUS43 KDTX 290410
RWRMI
MICHIGAN HOURLY REGIONAL WEATHER ROUNDUP
NATIONAL WEATHER SERVICE DETROIT/PONTIAC MI
1200 AM EDT TUE JUL 29 2014

NOTE: "FAIR" INDICATES FEW OR NO CLOUDS BELOW 12,000 FEET WITH NO
SIGNIFICANT WEATHER AND/OR OBSTRUCTION TO VISIBILITY.

MIZ047>049-052>055-059>063-066>070-074>076-081>083-290500-
SOUTHEAST LOWER MICHIGAN

CITY           SKY/WX    TMP DP  RH WIND       PRES   REMARKS
ADRIAN         PTCLDY    54  49  83 NE5       30.02F
ALMA           CLEAR     49  48  95 CALM      30.02F
ANN ARBOR      CLEAR     55  46  71 N5        30.01F
BAD AXE        CLOUDY    52  49  92 CALM      29.99S
DETROIT CITY   PTCLDY    59  46  62 NW3       30.00F
DETROIT        PTCLDY    54  47  77 W6        30.01F
FLINT          CLOUDY    56  47  71 W3        30.01F
GROSSE ILE     PTCLDY    57  48  72 N3        29.99S
HILLSDALE      MOCLDY    54  52  92 CALM      30.03F
HOWELL         CLOUDY    54  49  83 CALM      30.01F

CITY           SKY/WX    TMP DP  RH WIND       PRES   REMARKS
JACKSON        CLEAR     51  48  89 CALM      30.02F
LAMBERTVILLE   PTCLDY    57  50  77 CALM      30.01F
LANSING        PTCLDY    50  48  93 CALM      30.03S
LAPEER         NOT AVBL
MASON          CLEAR     49  47  91 CALM      30.03S
MONROE         CLEAR     55  48  76 CALM      29.99F
MT. CLEMENS    CLOUDY    58  47  68 NW7       29.98F
PONTIAC        PTCLDY    52  46  80 W5        30.00F
PORT HOPE        N/A     61  49  64 VRB7      29.96S
PORT HURON     CLOUDY    54  48  82 NW3       29.98F
TRI CITIES     CLEAR     56  50  80 SW5       30.01F
YPSILANTI      CLEAR     56  48  74 NW6       30.01F
$$
MIZ043>046-050>051-056>058-064>065-071>073-077>080-290500-
SOUTHWEST LOWER MICHIGAN

CITY           SKY/WX    TMP DP  RH WIND       PRES   REMARKS
BATTLE CREEK   CLEAR     54  50  86 CALM      30.04F
BENTON HARBOR  PTCLDY    52  49  89 CALM      30.05S
BIG RAPIDS     CLEAR     51  51 100 CALM      30.02F
COLDWATER      CLOUDY    58  52  80 NW3       30.04S
HOLLAND        CLEAR     53  49  86 CALM      30.05S
GRAND RAPIDS   PTCLDY    58  48  69 CALM      30.03F
KALAMAZOO      CLEAR     54  48  80 CALM      30.04F
MARSHALL       CLOUDY    53  49  85 W3        30.03S
MUSKEGON       CLEAR     52  48  86 CALM      30.04F
$$
MIZ016>042-290500-
NORTHERN LOWER MICHIGAN

CITY           SKY/WX    TMP DP  RH WIND       PRES   REMARKS
ALPENA         CLEAR     54  49  83 W6        29.97S
BEAVER ISLAND  PTCLDY    56  56 100 SW6       29.98F
BELLAIRE       PTCLDY    51  49  92 CALM      29.99S
CADILLAC       PTCLDY    48  47  95 W3        30.01F
CHARLEVOIX     PTCLDY    59  54  82 W12       30.01F
FRANKFORT      PTCLDY    51  45  82 CALM      30.01F
GAYLORD        PTCLDY    53  49  86 SW3       29.99F
GRAYLING       CLEAR     51  48  90 CALM      30.00F
HARBOR SPRINGS PTCLDY    59  54  83 SW6       29.98F
HOUGHTON LAKE  CLEAR     51  47  86 CALM      30.00F
MANISTEE       CLEAR     48  45  87 W3        30.03F
OSCODA         CLEAR     51  48  90 W3        29.97S
PELLSTON       PTCLDY    56  54  93 CALM      29.97F
TRAVERSE CITY  CLEAR     56  48  74 SW5       29.99F
$$
MIZ007>008-015-290500-
EASTERN UPPER MICHIGAN

CITY           SKY/WX    TMP DP  RH WIND       PRES   REMARKS
KINROSS        MOCLDY    50  48  93 W5        29.95F
MACKINAC ISLAN PTCLDY    55  50  83 W5        29.96S
NEWBERRY       MOCLDY    49  48  95 W5        29.96F
S. S. MARIE    CLOUDY    53  49  86 W5        29.94F
$$
MIZ004>006-011>014-085-290500-
CENTRAL UPPER MICHIGAN

CITY           SKY/WX    TMP DP  RH WIND       PRES   REMARKS
MANISTIQUE     MOCLDY    57  52  82 CALM      29.97F
ESCANABA       CLOUDY    63  52  67 W6        29.99F
MENOMINEE      MOCLDY    64  54  68 CALM      30.00F
SAWYER-GWINN   PTCLDY    59  53  80 NW5       30.01S
$$
MIZ001>003-009>011-084-290500-
WESTERN UPPER MICHIGAN

CITY           SKY/WX    TMP DP  RH WIND       PRES   REMARKS
IRON MOUNTAIN  CLEAR     61  53  75 NW6       30.01F
COPPER HARBOR    N/A     61  54  77 N13       29.98F
$$

ABBREVIATIONS USED IN REMARKS
   TC - TEMPERATURE IN CELSIUS
  WCI - WIND CHILL INDEX
   HX - HEAT INDEX
  VSB - VISIBILITY




USA.gov is the U.S. government's official web portal to all federal, state and local government web resources and services.